Date String (YYYY-MM-DD hh:mm:ss) UTC,Instrument flags,absolute air pressure of the measurement (hPa),sample flow rate (lpm),inlet stack bypass flow (lpm),air temperature of the measurement (°C),ambient temperature measured by the external sensor (°C),aerosol sample conditioner tube jacket temperature (°C),OPC LED temperature (°C),internal box temperature (°C),relative humidity of the measurement (%),span deviation,mass concentration of particles derived from Lorenz-Mie calculation of OPC scattering (μg/m³),mass concentration of particles derived from Lorenz-Mie calculation of OPC scattering (μg/m³),mass concentration of particles derived from Lorenz-Mie calculation of OPC scattering (μg/m³)
DateTimeUTC,F1_M11,P_M11,Q1_M11,Q2_M11,T1_M11,T2_M11,T3_M11,T4_M11,T5_M11,U1_M11,ZSPAN_M11,X0_M11,X2_M11,X1_M11
2024-03-21 03:00:00,SystemResetWarning,0826.1,5.00,000.00,025.0,024.1,000.0,033.8,026.9,16.3,0004.4,0022.89,0009.91,0008.72
2024-03-21 03:01:00,SystemResetWarning,0826.1,5.00,000.00,025.0,024.1,000.0,033.8,026.9,16.4,0004.4,0024.05,0009.90,0008.72
2024-03-21 03:02:00,SystemResetWarning,0826.2,5.00,000.00,025.0,024.0,000.0,033.7,026.9,16.5,0004.8,0023.92,0009.90,0008.70
2024-03-21 03:03:00,SystemResetWarning,0826.1,4.99,000.00,025.0,024.0,000.0,033.7,026.9,16.5,0004.5,0023.42,0009.83,0008.66
2024-03-21 03:04:00,SystemResetWarning,0826.2,5.00,000.00,025.0,024.0,000.0,033.7,026.9,16.4,0004.4,0023.25,0009.82,0008.64
2024-03-21 03:05:00,SystemResetWarning,0826.2,5.01,000.00,025.0,024.0,000.0,033.7,026.8,16.4,0004.3,0022.73,0009.83,0008.65
2024-03-21 03:06:00,SystemResetWarning,0826.2,5.01,000.00,025.0,024.0,000.0,033.7,026.8,16.4,0004.1,0022.65,0009.85,0008.63
2024-03-21 03:07:00,SystemResetWarning,0826.2,4.99,000.00,025.0,024.0,000.0,033.7,026.8,16.4,0004.0,0022.33,0009.84,0008.64
2024-03-21 03:08:00,SystemResetWarning,0826.2,4.98,000.00,025.0,024.0,000.0,033.7,026.8,16.4,0004.0,0020.23,0009.77,0008.62
2024-03-21 03:09:00,SystemResetWarning,0826.2,5.02,000.00,025.0,024.0,000.0,033.7,026.8,16.6,0004.1,0021.06,0009.74,0008.59
2024-03-21 03:10:00,SystemResetWarning,0826.2,4.99,000.00,024.9,024.0,000.0,033.7,026.8,16.6,0003.4,0021.35,0009.70,0008.54
2024-03-21 03:11:00,SystemResetWarning,0826.2,4.98,000.00,024.9,023.9,000.0,033.7,026.8,16.5,0003.1,0021.38,0009.66,0008.48
2024-03-21 03:12:00,SystemResetWarning,0826.2,5.00,000.00,024.9,023.9,000.0,033.6,026.8,16.5,0003.1,0020.18,0009.64,0008.41
2024-03-21 03:13:00,SystemResetWarning,0826.3,5.01,000.00,024.9,023.9,000.0,033.6,026.8,16.5,0002.7,0019.54,0009.58,0008.35
2024-03-21 03:14:00,SystemResetWarning,0826.3,5.00,000.00,024.9,023.9,000.0,033.6,026.7,16.4,0002.9,0019.11,0009.62,0008.33
2024-03-21 03:15:00,SystemResetWarning,0826.3,4.99,000.00,024.9,023.9,000.0,033.6,026.7,16.3,0002.8,0018.84,0009.63,0008.36
2024-03-21 03:16:00,SystemResetWarning,0826.3,5.01,000.00,024.9,023.9,000.0,033.6,026.7,16.4,0002.9,0018.85,0009.53,0008.31
2024-03-21 03:17:00,SystemResetWarning,0826.3,4.99,000.00,024.9,023.9,000.0,033.6,026.7,16.4,0003.0,0018.30,0009.40,0008.23
2024-03-21 03:18:00,SystemResetWarning,0826.3,5.00,000.00,024.9,023.9,000.0,033.6,026.7,16.2,0003.9,0017.46,0009.35,0008.17
2024-03-21 03:19:00,SystemResetWarning,0826.3,5.02,000.00,024.9,023.9,000.0,033.6,026.7,16.1,0004.4,0017.40,0009.36,0008.17
2024-03-21 03:20:00,SystemResetWarning,0826.4,5.00,000.00,024.8,023.9,000.0,033.6,026.7,16.2,0004.2,0016.76,0009.40,0008.20
2024-03-21 03:21:00,SystemResetWarning,0826.4,5.00,000.00,024.8,023.9,000.0,033.6,026.7,16.3,0004.5,0016.99,0009.40,0008.19
2024-03-21 03:22:00,SystemResetWarning,0826.4,4.99,000.00,024.8,023.9,000.0,033.5,026.7,16.3,0004.4,0017.26,0009.35,0008.15
2024-03-21 03:23:00,SystemResetWarning,0826.4,4.99,000.00,024.8,023.8,000.0,033.5,026.7,16.3,0004.7,0017.36,0009.27,0008.12
2024-03-21 03:24:00,SystemResetWarning,0826.4,5.00,000.00,024.8,023.8,000.0,033.5,026.7,16.2,0005.1,0019.20,0009.28,0008.12
2024-03-21 03:25:00,SystemResetWarning,0826.4,5.00,000.00,024.8,023.8,000.0,033.5,026.6,16.2,0004.9,0019.88,0009.32,0008.12
2024-03-21 03:26:00,SystemResetWarning,0826.4,5.00,000.00,024.8,023.8,000.0,033.5,026.6,16.3,0005.1,0019.95,0009.27,0008.04
2024-03-21 03:27:00,SystemResetWarning,0826.4,5.00,000.00,024.7,023.8,000.0,033.5,026.6,16.3,0005.3,0019.84,0009.16,0007.96
2024-03-21 03:28:00,SystemResetWarning,0826.4,5.01,000.00,024.7,023.8,000.0,033.5,026.6,16.3,0005.7,0019.95,0009.16,0007.93
2024-03-21 03:29:00,SystemResetWarning,0826.4,5.00,000.00,024.7,023.8,000.0,033.5,026.6,16.1,0005.3,0020.24,0009.09,0007.86
2024-03-21 03:30:00,SystemResetWarning,0826.4,5.01,000.00,024.7,023.8,000.0,033.5,026.6,15.9,0005.0,0019.72,0008.99,0007.79
2024-03-21 03:31:00,SystemResetWarning,0826.4,5.00,000.00,024.7,023.8,000.0,033.4,026.6,15.9,0005.2,0019.42,0008.88,0007.70
2024-03-21 03:32:00,SystemResetWarning,0826.4,5.00,000.00,024.7,023.8,000.0,033.4,026.6,15.9,0005.1,0019.64,0008.85,0007.68
2024-03-21 03:33:00,SystemResetWarning,0826.4,4.99,000.00,024.7,023.7,000.0,033.4,026.6,16.1,0004.9,0019.69,0008.82,0007.67
2024-03-21 03:34:00,SystemResetWarning,0826.4,4.99,000.00,024.7,023.7,000.0,033.4,026.6,16.3,0004.7,0020.06,0008.78,0007.63
2024-03-21 03:35:00,SystemResetWarning,0826.4,5.01,000.00,024.7,023.7,000.0,033.4,026.5,16.0,0004.4,0018.91,0008.74,0007.65
2024-03-21 03:36:00,SystemResetWarning,0826.5,5.00,000.00,024.6,023.7,000.0,033.4,026.5,16.2,0004.8,0018.51,0008.68,0007.64
2024-03-21 03:37:00,SystemResetWarning,0826.5,5.01,000.00,024.6,023.7,000.0,033.4,026.5,16.3,0005.1,0018.54,0008.68,0007.69
2024-03-21 03:38:00,SystemResetWarning,0826.6,5.00,000.00,024.6,023.7,000.0,033.4,026.5,16.0,0005.3,0018.70,0008.77,0007.75
2024-03-21 03:39:00,SystemResetWarning,0826.6,5.00,000.00,024.6,023.7,000.0,033.4,026.5,16.0,0005.0,0019.00,0008.87,0007.83
2024-03-21 03:40:00,SystemResetWarning,0826.6,4.99,000.00,024.6,023.6,000.0,033.3,026.5,16.3,0004.7,0019.45,0009.02,0007.94
2024-03-21 03:41:00,SystemResetWarning,0826.6,5.00,000.00,024.6,023.6,000.0,033.3,026.5,16.3,0004.6,0019.89,0009.14,0008.04
2024-03-21 03:42:00,SystemResetWarning,0826.6,4.99,000.00,024.6,023.6,000.0,033.3,026.5,16.4,0004.8,0019.84,0009.23,0008.14
2024-03-21 03:43:00,SystemResetWarning,0826.6,5.01,000.00,024.6,023.6,000.0,033.3,026.5,16.4,0004.8,0019.40,0009.29,0008.17
2024-03-21 03:44:00,SystemResetWarning,0826.6,5.01,000.00,024.6,023.6,000.0,033.3,026.5,16.2,0005.0,0019.55,0009.31,0008.19
2024-03-21 03:45:00,SystemResetWarning,0826.6,5.00,000.00,024.6,023.6,000.0,033.3,026.5,16.0,0005.3,0019.12,0009.33,0008.21
2024-03-21 03:46:00,SystemResetWarning,0826.5,4.99,000.00,024.6,023.6,000.0,033.3,026.4,16.1,0005.4,0018.45,0009.35,0008.23
2024-03-21 03:47:00,SystemResetWarning,0826.6,5.00,000.00,024.5,023.6,000.0,033.3,026.4,16.4,0005.5,0018.46,0009.47,0008.29
2024-03-21 03:48:00,SystemResetWarning,0826.6,5.00,000.00,024.5,023.6,000.0,033.3,026.4,16.5,0005.3,0018.81,0009.60,0008.35
2024-03-21 03:49:00,SystemResetWarning,0826.6,4.99,000.00,024.5,023.6,000.0,033.3,026.4,16.5,0005.0,0018.95,0009.67,0008.42
2024-03-21 03:50:00,SystemResetWarning,0826.6,5.00,000.00,024.5,023.6,000.0,033.2,026.4,16.4,0005.1,0019.93,0009.77,0008.49
2024-03-21 03:51:00,SystemResetWarning,0826.6,5.00,000.00,024.5,023.6,000.0,033.2,026.4,16.5,0005.3,0020.31,0009.72,0008.48
2024-03-21 03:52:00,SystemResetWarning,0826.6,5.00,000.00,024.5,023.6,000.0,033.2,026.4,16.5,0005.2,0020.36,0009.60,0008.40
2024-03-21 03:53:00,SystemResetWarning,0826.6,5.01,000.00,024.5,023.6,000.0,033.2,026.4,16.6,0005.1,0022.33,0009.62,0008.36
2024-03-21 03:54:00,SystemResetWarning,0826.6,5.00,000.00,024.5,023.6,000.0,033.2,026.4,16.6,0005.1,0023.16,0009.68,0008.36
2024-03-21 03:55:00,SystemResetWarning,0826.6,5.00,000.00,024.5,023.6,000.0,033.2,026.4,16.5,0004.9,0022.64,0009.78,0008.44
2024-03-21 03:56:00,SystemResetWarning,0826.6,5.00,000.00,024.5,023.6,000.0,033.2,026.4,16.5,0004.4,0022.81,0009.89,0008.53
2024-03-21 03:57:00,SystemResetWarning,0826.6,5.00,000.00,024.5,023.6,000.0,033.2,026.4,16.5,0003.8,0023.54,0009.98,0008.61
2024-03-21 03:58:00,SystemResetWarning,0826.6,5.00,000.00,024.4,023.5,000.0,033.2,026.4,16.5,0003.4,0023.40,0009.91,0008.60
2024-03-21 03:59:00,SystemResetWarning,0826.6,5.00,000.00,024.4,023.5,000.0,033.2,026.3,16.4,0003.7,0023.09,0009.85,0008.60
